Regional Weather Roundup
Issued by NWS

Home | Current Version | Previous Version | Graphics & Text | Print | Product List | Glossary On
Versions: 1 2 3 4 5 6 7 8 9 10 11 12 13 14 15 16 17 18 19 20 21 22 23 24 25 26 27 28 29 30 31 32 33 34 35 36 37 38 39 40 41 42 43 44 45 46 47 48 49 50
000
ASUS45 KABQ 120201
RWRNM
NEW MEXICO REGIONAL WEATHER ROUNDUP
NATIONAL WEATHER SERVICE ALBUQUERQUE NM
700 PM MST THU FEB 11 2016

NOTE: "FAIR" MEANS FEW OR NO CLOUDS BELOW 12,000 FEET AGL WITH NO
       SIGNIFICANT WEATHER OR OBSTRUCTIONS TO VISION.

      THIS PRODUCT IS RELEASED AS TWO VERSIONS.  ONE VERSION NEAR
      THE TOP OF THE HOUR CONTAINING PRELIMINARY DATA FROM ALBUQUERQUE
      AND OTHER STATIONS.  A FINAL VERSION WITH ADDITIONAL DATA IS
      ISSUED ABOUT 10 MINUTES AFTER THE HOUR.

NMZ501-503-504-510>518-120300-
NORTHWEST PLATEAU/NORTHCENTRAL MOUNTAINS

CITY           SKY/WX    TMP DP  RH WIND       PRES   REMARKS
FARMINGTON     CLOUDY    42  22  44 W8        30.34R
SANTA FE       CLOUDY    47  16  29 NW3       30.30R
TAOS           CLOUDY    36  19  51 NE3       30.35R

$$
NMZ402-403-502-505>509-120300-
WESTCENTRAL MOUNTAINS/SOUTHWEST MOUNTAINS

CITY           SKY/WX    TMP DP  RH WIND       PRES   REMARKS
GALLUP         CLEAR     44  16  32 E3        30.38R
GRANTS         CLEAR     39   7  27 NW10G20   30.40R WCI  32
SILVER CITY      N/A     46  10  23 N13       30.30R

$$
NMZ407-409-411-412-120300-
SOUTHERN DESERTS

CITY           SKY/WX    TMP DP  RH WIND       PRES   REMARKS
DEMING         CLEAR     58  12  16 SW5       30.24R
HOLLOMAN AFB   CLEAR     55  12  18 N5        30.22R
ALAMOGORDO     CLEAR     59   9  13 NE8       30.23S
T OR C         CLEAR     60   9  13 S5        30.26R

$$
NMZ519>523-120300-
CENTRAL VALLEYS/CENTRAL HIGHLANDS

CITY           SKY/WX    TMP DP  RH WIND       PRES   REMARKS
ALBUQUERQUE    PTCLDY    55  18  23 N9        30.31R
DOUBLE EAGLE   PTCLDY    43  12  28 CALM      30.32R
MORIARTY ARPT  FAIR      48  10  21 CALM      30.32R
CLINES CORNERS CLOUDY    41  18  39 W15       30.30R
BELEN          FAIR      51  13  22 CALM      30.29R
SOCORRO        NOT AVBL

$$
NMZ524>526-539-540-120300-
SOUTHCENTRAL MOUNTAINS

CITY           SKY/WX    TMP DP  RH WIND       PRES   REMARKS
RUIDOSO          N/A     50   0  12 SW8       30.34S

$$
NMZ527>531-120300-
NORTHEAST HIGHLANDS/NORTHEAST PLAINS

CITY           SKY/WX    TMP DP  RH WIND       PRES   REMARKS
LAS VEGAS      CLOUDY    45   8  22 NW8       30.27R
RATON          CLOUDY    49  11  21 W7        30.23R
CLAYTON        CLEAR     52  14  22 W13       30.17R

$$
NMZ532>537-120300-
EASTCENTRAL PLAINS

CITY           SKY/WX    TMP DP  RH WIND       PRES   REMARKS
TUCUMCARI      CLEAR     49  13  23 W5        30.15R
CANNON AFB     CLOUDY    48  20  32 E5        30.19R
CLOVIS AIRPORT CLOUDY    48  16  27 SE5       30.21R

$$
NMZ028-029-538-120300-
SOUTHEAST PLAINS

CITY           SKY/WX    TMP DP  RH WIND       PRES   REMARKS
ROSWELL        CLEAR     50  18  28 S7        30.18R
ARTESIA        CLEAR     57  21  24 VRB3      30.19R
CARLSBAD       CLEAR     44  25  47 W6        30.17R
HOBBS          CLEAR     54  23  30 E6        30.20S


$$



USA.gov is the U.S. government's official web portal to all federal, state and local government web resources and services.